[[{"header":{"parameterUnit":"m.s-1","parameterCategory":1,"la1":30.2991,"la2":30.254,"lo1":-89.0895,"lo2":-89.0444,"dy":0.0017,"dx":0.0017,"nx":28,"ny":28,"refTime":"2023-08-20T03:00:00:Z","depth":0,"parameterNumber":2,"parameterNumberName":"U-component_of_WINDS"},"data":[0,0,0,0,0,0,0,0,0,0,0,0,0,0,0,0,0,0,0,0,0,0,0,0,0,0,0,0,0,0,0,0,0,0,0,0,0,0,0,0,0,0,0,0,0,0,0,0,0,0,0,0,0,0,0,0,0,0,-3.0431,-3.0431,0,-3.0424,-3.0424,-3.0424,-3.0355,-3.0353,-3.0351,-3.035,-3.0345,-3.0346,-3.0348,0,0,0,0,0,0,0,0,0,0,0,0,0,-3.0392,-3.0393,-3.0431,-3.0431,-3.0431,-3.0424,-3.0424,-3.0424,-3.0355,-3.0353,-3.0351,-3.0349,-3.0344,-3.0346,-3.0348,0,0,0,0,0,0,0,0,0,0,0,0,0,-3.0399,-3.0393,-3.0432,-3.0396,-3.0393,-3.0424,-3.0424,-3.0424,-3.0356,-3.0353,-3.035,-3.0348,-3.0344,-3.0346,-3.0348,-3.0414,0,0,-3.0355,-3.0356,0,0,0,0,0,0,0,0,-3.0399,-3.0401,-3.0401,-3.0399,-3.0395,-3.0388,-3.0408,-3.0421,-3.0356,-3.037,-3.035,-3.0347,-3.0361,-3.0362,-3.0366,-3.0413,-3.0413,-3.0355,-3.0356,-3.0357,-3.0358,0,0,0,0,0,0,0,-3.0399,-3.0401,-3.0429,-3.0402,-3.0398,-3.0383,-3.0381,-3.041,-3.038,-3.0368,-3.0363,-3.0363,-3.0359,-3.0364,-3.0366,-3.0413,-3.0355,-3.0357,-3.0358,-3.0359,-3.0519,-3.0522,0,0,0,0,0,0,-3.0402,-3.0401,-3.0429,-3.0428,-3.0391,-3.0385,-3.0383,-3.0393,-3.038,-3.0375,-3.0366,-3.036,-3.0362,-3.0363,-3.0365,-3.0443,-3.0357,-3.0359,-3.0361,-3.0516,-3.052,-3.0523,0,0,0,0,0,0,-3.0402,-3.0406,-3.0429,-3.0413,-3.0415,-3.0389,-3.04,-3.0394,-3.0399,-3.0378,-3.0372,-3.0376,-3.036,-3.0362,-3.0403,-3.0442,-3.036,-3.0362,-3.0513,-3.0517,-3.0521,-3.0599,0,0,0,0,0,0,-3.0401,-3.0406,-3.0428,-3.0414,-3.0416,-3.0465,-3.0402,-3.0396,-3.0403,-3.0396,-3.0386,-3.0382,-3.0358,-3.04,-3.0405,-3.0444,-3.0364,-3.0509,-3.0515,-3.052,-3.0593,-3.0606,-3.0616,0,0,0,0,0,-3.04,-3.045,-3.043,-3.0434,-3.0444,-3.0467,-3.0469,-3.0439,-3.0406,-3.043,-3.0417,-3.0382,-3.0438,-3.0405,-3.041,-3.045,-3.0506,-3.0513,-3.0519,-3.0588,-3.0603,-3.0616,0,0,0,0,0,0,-3.0469,-3.0447,-3.0425,-3.0471,-3.0472,-3.0456,-3.0484,-3.0456,-3.0466,-3.0459,-3.0424,-3.0422,-3.047,-3.0464,-3.0428,-3.0515,-3.0466,-3.0474,-3.0516,-3.0531,-3.0543,-3.0542,-3.0366,0,0,0,0,0,-3.049,-3.0509,-3.049,-3.0533,-3.0535,-3.051,-3.0519,-3.0497,-3.0497,-3.0496,-3.0486,-3.0488,-3.0506,-3.0519,-3.0534,-3.0593,-3.0592,-3.0624,-3.0635,-3.0645,-3.0652,-3.0687,-3.0701,-3.0544,-3.0544,-3.0544,0,0,-3.0532,-3.0523,-3.0537,-3.0547,-3.0545,-3.0568,-3.051,-3.0536,-3.0554,-3.05,-3.0538,-3.0532,-3.0532,-3.0584,-3.0606,-3.058,-3.0696,-3.0654,-3.0662,-3.0663,-3.0695,-3.071,-3.0723,-3.0549,-3.0548,-3.0547,0,0,-3.0621,-3.0616,-3.0653,-3.0653,-3.0651,-3.0635,-3.0644,-3.0634,-3.0627,-3.0665,-3.0627,-3.0649,-3.068,-3.0683,-3.0688,-3.0786,-3.0755,-3.0793,-3.0853,-3.0888,-3.09,-3.0911,-3.0947,-3.0961,-3.08,-3.08,-3.08,0,-3.0675,-3.0706,-3.0676,-3.0705,-3.0712,-3.0667,-3.0706,-3.0708,-3.0711,-3.0718,-3.069,-3.0732,-3.0728,-3.0781,-3.0806,-3.0811,-3.0823,-3.0792,-3.0901,-3.0911,-3.0921,-3.0955,-3.0969,-3.0805,-3.0804,-3.0804,-3.0803,0,-3.0773,-3.0796,-3.0827,-3.0832,-3.0843,-3.0877,-3.0854,-3.087,-3.0849,-3.0837,-3.088,-3.0875,-3.089,-3.0902,-3.0881,-3.0954,-3.0938,-3.0907,-3.0856,-3.0941,-3.0973,-3.0986,-3.0811,-3.081,-3.0808,-3.0807,0,0,-3.09,-3.0892,-3.0904,-3.0908,-3.0905,-3.0923,-3.0958,-3.0973,-3.0988,-3.0994,-3.1024,-3.1054,-3.1026,-3.1033,-3.1013,-3.1043,-3.1124,-3.1008,-3.1008,-3.103,-3.1207,-3.1231,-3.1246,-3.1105,-3.1108,-3.111,-3.1208,0,-3.0987,-3.1043,-3.102,-3.1079,-3.1102,-3.1063,-3.1094,-3.1097,-3.1089,-3.1109,-3.1101,-3.1124,-3.1084,-3.1088,-3.1117,-3.1108,-3.1159,-3.1101,-3.1134,-3.1135,-3.1134,-3.1262,-3.1286,-3.1378,-3.122,-3.1222,-3.1223,0,-3.1094,-3.1105,-3.1167,-3.1165,-3.1174,-3.1201,-3.1216,-3.1235,-3.1241,-3.1233,-3.1244,-3.1219,-3.1256,-3.1208,-3.126,-3.1221,-3.1235,-3.1234,-3.1237,-3.1237,-3.1183,-3.1267,-3.1407,-3.1421,-3.1242,-3.1241,-3.1239,0,-3.1182,-3.1213,-3.1255,-3.126,-3.1257,-3.1278,-3.1279,-3.1281,-3.1294,-3.1308,-3.1316,-3.1335,-3.1345,-3.1361,-3.1344,-3.131,-3.14,-3.135,-3.1396,-3.1397,-3.1414,-3.1413,-3.1559,-3.1425,-3.1424,-3.1424,-3.1424,0,-3.128,-3.132,-3.1295,-3.1321,-3.1366,-3.1341,-3.1387,-3.1383,-3.1387,-3.1414,-3.1382,-3.1408,-3.1384,-3.1409,-3.1396,-3.1443,-3.1447,-3.1444,-3.144,-3.1446,-3.1447,-3.1453,-3.1446,-3.1428,-3.1427,-3.1426,-3.1426,0,-3.1384,-3.1369,-3.1412,-3.1409,-3.1409,-3.1443,-3.144,-3.1466,-3.1458,-3.1492,-3.1499,-3.1486,-3.1515,-3.15,-3.1528,-3.152,-3.1581,-3.1569,-3.1579,-3.1576,-3.1623,-3.1619,-3.1776,-3.1797,-3.165,-3.1652,-3.1653,0,-3.1447,-3.1477,-3.1478,-3.1493,-3.1496,-3.1521,-3.1534,-3.1513,-3.1529,-3.1541,-3.1566,-3.1591,-3.161,-3.1658,-3.1653,-3.1677,-3.1664,-3.1718,-3.1667,-3.1674,-3.1666,-3.1664,-3.1668,-3.1728,-3.1729,-3.1731,-3.1732,0,-3.1561,-3.1553,-3.1573,-3.1592,-3.1609,-3.1623,-3.1635,-3.165,-3.163,-3.165,-3.1678,-3.1694,-3.1725,-3.1752,-3.1774,-3.1777,-3.1753,-3.1749,-3.1761,-3.1767,-3.1772,-3.1771,-3.1607,-3.1744,-3.1743,-3.1742,-3.1742,-3.1741,-3.1646,-3.1673,-3.1678,-3.1703,-3.171,-3.1723,-3.1748,-3.1744,-3.1767,-3.1791,-3.1778,-3.1813,-3.1823,-3.1849,-3.1857,-3.1885,-3.1864,-3.1881,-3.1885,-3.189,-3.1897,-3.1769,-3.1889,-3.1889,-3.1889,-3.1888,-3.1888,0,-3.1759,-3.1762,-3.1785,-3.1803,-3.1824,-3.18,-3.1814,-3.1833,-3.1863,-3.1874,-3.1895,-3.1931,-3.1959,-3.1958,-3.1984,-3.2008,-3.1998,-3.2016,-3.2013,-3.2015,-3.1914,-3.1901,-3.2024,-3.2024,-3.2024,-3.2024,-3.2024,-3.2024,-3.182,-3.1864,-3.1859,-3.1908,-3.1911,-3.1944,-3.1954,-3.1968,-3.1977,-3.2018,-3.2041,-3.204,-3.2048,-3.2076,-3.2102,-3.2101,-3.2113,-3.2135,-3.213,-3.2035,-3.2022,-3.2009,-3.1996,-3.2138,-3.2138,-3.2229,-3.223,-3.2231]},{"header":{"parameterUnit":"m.s-1","parameterCategory":1,"la1":30.2991,"la2":30.254,"lo1":-89.0895,"lo2":-89.0444,"dy":0.0017,"dx":0.0017,"nx":28,"ny":28,"refTime":"2023-08-20T03:00:00:Z","depth":0,"parameterNumber":3,"parameterNumberName":"V-component_of_WINDS"},"data":[0,0,0,0,0,0,0,0,0,0,0,0,0,0,0,0,0,0,0,0,0,0,0,0,0,0,0,0,0,0,0,0,0,0,0,0,0,0,0,0,0,0,0,0,0,0,0,0,0,0,0,0,0,0,0,0,0,0,3.1793,3.1793,0,3.1787,3.1787,3.1786,3.1836,3.1838,3.1839,3.184,3.1826,3.1824,3.1822,0,0,0,0,0,0,0,0,0,0,0,0,0,3.1841,3.184,3.1793,3.1793,3.1793,3.1787,3.1787,3.1786,3.1836,3.1838,3.1839,3.1841,3.1826,3.1824,3.1822,0,0,0,0,0,0,0,0,0,0,0,0,0,3.1826,3.184,3.1793,3.1817,3.1819,3.1787,3.1787,3.1786,3.1836,3.1838,3.184,3.1842,3.1827,3.1825,3.1822,3.1764,0,0,3.1814,3.1813,0,0,0,0,0,0,0,0,3.1827,3.1824,3.1813,3.1815,3.1817,3.1815,3.1798,3.1779,3.1835,3.1829,3.184,3.1843,3.182,3.1818,3.1812,3.1763,3.1763,3.1814,3.1812,3.1811,3.1811,0,0,0,0,0,0,0,3.1828,3.1825,3.179,3.1813,3.1815,3.1826,3.1826,3.1795,3.1812,3.183,3.1833,3.1832,3.1821,3.1814,3.1812,3.1762,3.1814,3.1812,3.181,3.1809,3.1667,3.1664,0,0,0,0,0,0,3.1826,3.1825,3.179,3.179,3.1828,3.1823,3.1824,3.1813,3.1813,3.1815,3.1831,3.1835,3.1818,3.1815,3.1812,3.1743,3.1811,3.1809,3.1808,3.1669,3.1666,3.1664,0,0,0,0,0,0,3.1827,3.1823,3.179,3.1809,3.1805,3.182,3.1808,3.1812,3.1805,3.1814,3.1816,3.182,3.1819,3.1815,3.1776,3.1743,3.1808,3.1806,3.1671,3.1668,3.1665,3.1606,0,0,0,0,0,0,3.1829,3.1823,3.1802,3.1808,3.1804,3.1756,3.1806,3.181,3.1801,3.1807,3.1805,3.1806,3.182,3.178,3.1774,3.1741,3.1804,3.1674,3.167,3.1666,3.1611,3.1601,3.1593,0,0,0,0,0,3.183,3.1784,3.1801,3.1796,3.1779,3.1755,3.1752,3.1772,3.1799,3.1777,3.1783,3.1807,3.1749,3.1775,3.1769,3.1735,3.1676,3.1671,3.1666,3.1615,3.1603,3.1593,0,0,0,0,0,0,3.177,3.1785,3.1804,3.1758,3.1755,3.1763,3.1736,3.1758,3.1745,3.175,3.1773,3.1772,3.1728,3.1728,3.1757,3.1679,3.1717,3.171,3.168,3.1669,3.166,3.1659,3.1801,0,0,0,0,0,3.1752,3.1734,3.1747,3.1705,3.1703,3.172,3.171,3.1726,3.1722,3.172,3.1723,3.1717,3.1698,3.1684,3.1666,3.1613,3.1612,3.1586,3.1577,3.157,3.1562,3.1534,3.1522,3.1647,3.1647,3.1647,0,0,3.1713,3.172,3.1706,3.1694,3.1693,3.1671,3.1718,3.1693,3.1676,3.1716,3.1679,3.1682,3.1676,3.163,3.1609,3.1628,3.1529,3.1563,3.1557,3.1554,3.1527,3.1515,3.1505,3.1643,3.1644,3.1645,0,0,3.1632,3.1635,3.1601,3.1601,3.1601,3.1613,3.1605,3.161,3.1614,3.1579,3.1609,3.1589,3.1555,3.155,3.1543,3.1463,3.1484,3.1457,3.1408,3.1379,3.1369,3.1361,3.1331,3.132,3.1451,3.1451,3.1451,0,3.1582,3.1553,3.158,3.1554,3.1547,3.1586,3.1551,3.1548,3.1541,3.1535,3.1558,3.1518,3.1516,3.1469,3.145,3.1444,3.1434,3.1455,3.1369,3.1361,3.1353,3.1324,3.1313,3.1447,3.1448,3.1448,3.1448,0,3.1492,3.1471,3.1444,3.144,3.143,3.1399,3.142,3.1407,3.1425,3.1434,3.1398,3.1399,3.1383,3.1374,3.1389,3.1329,3.134,3.1366,3.1404,3.1337,3.1311,3.13,3.1442,3.1443,3.1445,3.1445,0,0,3.1367,3.1382,3.1371,3.137,3.1375,3.1358,3.1329,3.1317,3.1304,3.13,3.1274,3.1247,3.1272,3.1264,3.128,3.1255,3.1191,3.1284,3.1284,3.1264,3.1122,3.1101,3.1088,3.1207,3.1205,3.1203,3.1122,0,3.1286,3.1239,3.1264,3.1213,3.1194,3.1233,3.1207,3.1207,3.1215,3.1199,3.1208,3.1188,3.1223,3.1218,3.1196,3.1203,3.1162,3.121,3.118,3.1179,3.1177,3.1074,3.1051,3.0974,3.1112,3.111,3.1109,0,3.1184,3.1178,3.1125,3.1136,3.1128,3.1105,3.1096,3.1081,3.1081,3.1089,3.1083,3.1105,3.1076,3.1117,3.1076,3.1108,3.1099,3.11,3.1098,3.1093,3.1137,3.1063,3.095,3.0937,3.1093,3.1095,3.1096,0,3.1095,3.1075,3.1041,3.1039,3.105,3.1033,3.1036,3.1039,3.1031,3.1023,3.1017,3.1005,3.0997,3.0987,3.1005,3.1033,3.0961,3.1003,3.0964,3.0964,3.0943,3.0944,3.0824,3.0943,3.0943,3.0943,3.0943,0,3.1,3.0965,3.1001,3.098,3.0943,3.0973,3.0934,3.0942,3.0944,3.0924,3.0957,3.0937,3.0964,3.0946,3.0961,3.0924,3.092,3.0925,3.0928,3.092,3.0919,3.091,3.0915,3.094,3.0941,3.0941,3.0942,0,3.0893,3.0916,3.0881,3.0897,3.09,3.0871,3.0883,3.0863,3.0877,3.0851,3.0846,3.0866,3.0846,3.0865,3.0846,3.0856,3.0806,3.0819,3.0806,3.0809,3.0768,3.077,3.0635,3.0619,3.0751,3.075,3.0749,0,3.0828,3.0803,3.0817,3.0808,3.081,3.0794,3.0786,3.0815,3.0806,3.0806,3.0785,3.077,3.0759,3.0726,3.0737,3.0723,3.0734,3.0688,3.0731,3.0724,3.073,3.073,3.0727,3.0677,3.0676,3.0675,3.0674,0,3.0711,3.0725,3.0714,3.0707,3.0698,3.0694,3.0692,3.0681,3.0712,3.0699,3.0682,3.0674,3.0657,3.064,3.063,3.0632,3.0656,3.0661,3.0651,3.0639,3.0632,3.0633,3.0779,3.0662,3.0663,3.0664,3.0665,3.0665,3.0622,3.0601,3.0609,3.0596,3.0598,3.0596,3.0579,3.0592,3.0579,3.0569,3.0587,3.0565,3.0567,3.0557,3.0556,3.0538,3.0557,3.0542,3.0538,3.0533,3.0526,3.0639,3.0536,3.0537,3.0537,3.0537,3.0538,0,3.0504,3.0512,3.05,3.0498,3.0487,3.0517,3.0517,3.0505,3.0487,3.0488,3.0478,3.0458,3.0443,3.0455,3.0442,3.0425,3.0436,3.0421,3.042,3.042,3.0511,3.052,3.0412,3.0412,3.0412,3.0412,3.0412,3.0412,3.0441,3.0409,3.0423,3.0392,3.04,3.0381,3.0378,3.0376,3.0378,3.0355,3.0344,3.0354,3.0359,3.0347,3.0335,3.0339,3.0331,3.031,3.0318,3.0401,3.0413,3.0425,3.0434,3.0309,3.0309,3.0228,3.0227,3.0227]}]]